Mountain Home, ID

8:22 PM MDT on April 19, 2018 (GMT -0600)
Mountain Home Air Force Base

Weather History for KMUO - November, 2012

Change the Weather History Date:

Wednesday, November 14, 2012

  Actual Average Record
Temperature  
Mean Temperature 40 °F 39 °F  
Max Temperature 44 °F 49 °F 75 °F (1999)
Min Temperature 36 °F 28 °F 1 °F (1916)
Degree Days  
Heating Degree Days 25 26  
Month to date heating degree days 319 318  
Cooling Degree Days 0 0  
Month to date cooling degree days 0 0  
Moisture  
Dew Point 38 °F    
Average Humidity 98    
Maximum Humidity 100    
Minimum Humidity 81    
Precipitation  
Precipitation 0.04 in 0.05 in 0.77 in (1958)
Month to date precipitation 0.11 0.55  
Sea Level Pressure  
Sea Level Pressure 30.27 in    
Wind  
Wind Speed 7 mph (East)    
Max Wind Speed 12 mph    
Max Gust Speed -    
Visibility 10 miles    
Events Rain    
T = Trace of Precipitation, MM = Missing Value Source: NWS Daily Summary

Daily Weather History Graph

Daily Weather History Graph

Search for Another Location

Airport or City:

Astronomy

Nov. 14, 2012 Rise Set
Actual Time 7:35 AM MST 5:20 PM MST
Civil Twilight 7:04 AM MST 5:50 PM MST
Nautical Twilight 6:30 AM MST 6:25 PM MST
Astronomical Twilight 5:56 AM MST 6:58 PM MST
Moon 8:31 AM MST (11/14) 6:11 PM MST (11/14)
Length of Visible Light 10h 45m
Length of Day
9h 44m
New Moon, 1% of the Moon is Illuminated
Nov 14
New Moon
Nov 20
First Quarter
Nov 28
Full
Dec 6
Last Quarter
Dec 13
New

Hourly Weather History & Observations

Time (MST) Temp. Windchill Dew Point Humidity Pressure Visibility Wind Dir Wind Speed Gust Speed Precip Events Conditions
12:58 AM 39.7 °F 33.2 °F 34.5 °F 82% 30.21 in 10.0 mi SE 10.4 mph - N/A   Partly Cloudy
1:18 AM 39.2 °F 34.2 °F 35.6 °F 87% 30.21 in 10.0 mi SE 6.9 mph - N/A   Mostly Cloudy
1:28 AM 39.2 °F 35.0 °F 33.8 °F 81% 30.21 in 10.0 mi SSE 5.8 mph - N/A   Overcast
1:33 AM 39.2 °F 35.9 °F 35.6 °F 87% 30.21 in 10.0 mi SSE 4.6 mph - N/A   Light Drizzle
1:38 AM 39.2 °F 35.0 °F 35.6 °F 87% 30.21 in 10.0 mi SE 5.8 mph - N/A   Light Drizzle
1:42 AM 39.2 °F 34.2 °F 35.6 °F 87% 30.21 in 10.0 mi SE 6.9 mph - N/A   Overcast
1:47 AM 39.2 °F 35.0 °F 35.6 °F 87% 30.21 in 10.0 mi SE 5.8 mph - N/A   Overcast
1:58 AM 39.7 °F 37.6 °F 34.9 °F 83% 30.22 in 10.0 mi ESE 3.5 mph - N/A   Overcast
2:08 AM 39.2 °F 35.9 °F 35.6 °F 87% 30.22 in 10.0 mi East 4.6 mph - N/A   Overcast
2:33 AM 39.2 °F - 39.2 °F 100% 30.22 in 10.0 mi Calm Calm - N/A   Overcast
2:36 AM 39.2 °F - 39.2 °F 100% 30.22 in 10.0 mi SE 2.3 mph - N/A   Light Drizzle
2:41 AM 39.2 °F 37.0 °F 39.2 °F 100% 30.22 in 10.0 mi ESE 3.5 mph - N/A Rain Light Rain
2:58 AM 38.7 °F 35.2 °F 38.7 °F 100% 30.25 in 10.0 mi SE 4.6 mph - N/A Rain Light Rain
3:30 AM 39.2 °F 35.0 °F 39.2 °F 100% 30.22 in 10.0 mi East 5.8 mph - N/A   Overcast
3:38 AM 39.2 °F 35.0 °F 39.2 °F 100% 30.22 in 10.0 mi East 5.8 mph - N/A Rain Light Rain
3:58 AM 38.7 °F 33.6 °F 38.7 °F 100% 30.25 in 10.0 mi East 6.9 mph - N/A Rain Light Rain
4:08 AM 37.4 °F 32.1 °F 37.4 °F 100% 30.22 in 10.0 mi East 6.9 mph - N/A Rain Light Rain
4:28 AM 37.4 °F 32.1 °F 37.4 °F 100% 30.22 in 10.0 mi East 6.9 mph - N/A Rain Light Rain
4:33 AM 37.4 °F 31.4 °F 37.4 °F 100% 30.22 in 10.0 mi East 8.1 mph - N/A Rain Light Rain
4:43 AM 37.4 °F 31.4 °F 37.4 °F 100% 30.22 in 10.0 mi East 8.1 mph - N/A Rain Light Rain
4:48 AM 37.4 °F 30.8 °F 37.4 °F 100% 30.22 in 8.0 mi East 9.2 mph - N/A Rain Light Rain
4:58 AM 37.2 °F 30.0 °F 37.2 °F 100% 30.26 in 10.0 mi East 10.4 mph - N/A Rain Light Rain
5:28 AM 37.4 °F 30.3 °F 37.4 °F 100% 30.23 in 8.0 mi East 10.4 mph - N/A Rain Light Rain
5:43 AM 37.4 °F 30.8 °F 37.4 °F 100% 30.23 in 10.0 mi East 9.2 mph - N/A Rain Light Rain
5:58 AM 36.9 °F 29.6 °F 36.9 °F 100% 30.27 in 9.0 mi East 10.4 mph - N/A Rain Light Rain
6:08 AM 37.4 °F 30.3 °F 37.4 °F 100% 30.23 in 10.0 mi East 10.4 mph - N/A Rain Light Rain
6:23 AM 37.4 °F 30.3 °F 37.4 °F 100% 30.23 in 10.0 mi East 10.4 mph - N/A Rain Light Rain
6:33 AM 37.4 °F 29.8 °F 37.4 °F 100% 30.23 in 10.0 mi East 11.5 mph - N/A   Light Drizzle
6:41 AM 37.4 °F 29.8 °F 37.4 °F 100% 30.23 in 10.0 mi East 11.5 mph - N/A   Overcast
6:51 AM 37.4 °F 30.3 °F 37.4 °F 100% 30.23 in 10.0 mi East 10.4 mph - N/A   Overcast
6:55 AM 37.4 °F 29.8 °F 37.4 °F 100% 30.23 in 10.0 mi East 11.5 mph - N/A   Light Drizzle
6:58 AM 36.9 °F 29.1 °F 36.9 °F 100% 30.27 in 10.0 mi East 11.5 mph - N/A Rain Light Rain
7:08 AM 37.4 °F 30.3 °F 37.4 °F 100% 30.23 in 10.0 mi East 10.4 mph - N/A Rain Light Rain
7:58 AM 36.9 °F 29.6 °F 36.9 °F 100% 30.28 in 10.0 mi East 10.4 mph - N/A   Mostly Cloudy
8:08 AM 37.4 °F 30.8 °F 37.4 °F 100% 30.24 in 10.0 mi East 9.2 mph - N/A   Mostly Cloudy
8:58 AM 37.2 °F 30.0 °F 37.2 °F 100% 30.30 in 10.0 mi East 10.4 mph - 0.00 in   Overcast
9:58 AM 38.8 °F 33.8 °F 38.8 °F 100% 30.32 in 10.0 mi East 6.9 mph - N/A   Overcast
10:18 AM 39.2 °F 33.6 °F 39.2 °F 100% 30.27 in 10.0 mi East 8.1 mph - N/A   Overcast
10:33 AM 41.0 °F 36.4 °F 41.0 °F 100% 30.27 in 10.0 mi East 6.9 mph - N/A   Overcast
10:58 AM 41.0 °F 37.1 °F 41.0 °F 100% 30.32 in 10.0 mi ESE 5.8 mph - N/A   Mostly Cloudy
11:51 AM 41.0 °F 37.1 °F 41.0 °F 100% 30.28 in 10.0 mi ESE 5.8 mph - N/A   Mostly Cloudy
11:55 AM 42.8 °F - 42.8 °F 100% 30.31 in 10.0 mi Variable 2.3 mph - N/A   Overcast
12:47 PM 42.8 °F 40.1 °F 42.8 °F 100% 30.27 in 10.0 mi West 4.6 mph - N/A   Overcast
12:55 PM 42.8 °F 40.1 °F 42.8 °F 100% 30.30 in 10.0 mi SW 4.6 mph - N/A   Overcast
1:55 PM 42.8 °F 41.1 °F 42.8 °F 100% 30.29 in 10.0 mi SW 3.5 mph - N/A   Overcast
2:55 PM 42.6 °F - 42.6 °F 100% 30.30 in 10.0 mi Variable 2.3 mph - N/A   Overcast
3:59 PM 42.8 °F 39.3 °F 42.8 °F 100% 30.30 in 10.0 mi West 5.8 mph - N/A   Overcast
4:37 PM 42.8 °F 38.0 °F 42.8 °F 100% 30.27 in 10.0 mi West 8.1 mph - N/A   Overcast
5:10 PM 42.8 °F 38.0 °F 42.8 °F 100% 30.27 in 10.0 mi WNW 8.1 mph - N/A   Overcast
5:45 PM 41.0 °F 34.7 °F 41.0 °F 100% 30.28 in 10.0 mi WNW 10.4 mph - N/A   Overcast
5:58 PM 40.5 °F 34.6 °F 40.5 °F 100% 30.34 in 10.0 mi WNW 9.2 mph - N/A   Overcast
6:13 PM 39.2 °F 33.0 °F 39.2 °F 100% 30.28 in 10.0 mi NW 9.2 mph - N/A   Overcast
6:18 PM 39.2 °F 32.5 °F 39.2 °F 100% 30.29 in 10.0 mi WNW 10.4 mph - N/A   Overcast
6:58 PM 39.0 °F 33.4 °F 39.0 °F 100% 30.35 in 8.0 mi WNW 8.1 mph - N/A   Overcast
7:08 PM 39.2 °F 34.2 °F 39.2 °F 100% 30.30 in 8.0 mi WNW 6.9 mph - N/A   Overcast
7:13 PM 39.2 °F 33.6 °F 39.2 °F 100% 30.30 in 8.0 mi NW 8.1 mph - N/A   Overcast
7:53 PM 37.4 °F 31.4 °F 37.4 °F 100% 30.30 in 9.0 mi NW 8.1 mph - N/A   Overcast
7:58 PM 37.6 °F 32.3 °F 37.6 °F 100% 30.35 in 9.0 mi NW 6.9 mph - N/A   Overcast
8:38 PM 37.4 °F 32.1 °F 37.4 °F 100% 30.31 in 7.0 mi NW 6.9 mph - N/A   Overcast
8:58 PM 36.7 °F 31.2 °F 36.7 °F 100% 30.36 in 8.0 mi WNW 6.9 mph - N/A   Overcast
9:18 PM 35.6 °F 29.2 °F 35.6 °F 100% 30.32 in 8.0 mi NW 8.1 mph - N/A   Overcast
9:58 PM 35.8 °F 30.9 °F 35.8 °F 100% 30.38 in 7.0 mi NW 5.8 mph - N/A   Overcast
10:58 PM 36.0 °F 31.1 °F 36.0 °F 100% 30.38 in 6.0 mi NNE 5.8 mph - N/A   Overcast
11:43 PM 35.6 °F 32.8 °F 35.6 °F 100% 30.33 in 8.0 mi North 3.5 mph - N/A   Overcast
11:58 PM 36.3 °F - 36.3 °F 100% 30.33 in 6.0 mi East 2.3 mph - N/A   Overcast